OPS 4682 DEB, 13131

Orbit data source: Space-Track

OPS 4682 DEB, 13131 is space debris in LEO originally from a launch on Sat, 03 Apr 1965 UTC launched from the Air Force Western Test Range (AFWTR). Debris objects in space refer to the collection of defunct objects orbiting the Earth. Examples of debris include non-operational satellites, rocket bodies, and fragments generated from explosions, collisions, or faulty payload assembly.

Loading next visibility...
Identifier
13131, 1965-027H
Orbit
LEO
Country
Flag of USUS
Related business
Manufacturer
Unknown
Mission
Spacecraft
Bus & Motor
Unknown
Mass
Unknown
Launch date (UTC)
1965-04-03 (61 years ago)
Launch vehicle
Unknown
Launch site
Air Force Western Test Range (AFWTR)
Object type
Payload
Rocket body
Debris
Shape & HBR
Unknown shape, 0.1 m
Radar Cross Section
Medium (>0.1 m² and <1 m²)

Expand to show TLE details & history
Last TLE update: 4 days ago

TLE from 4 days ago
0 OPS 4682 DEB
1 13131U 65027H   26250.57049978 -.00000183  00000-0 -65022-3 0  9995
2 13131  90.2376 355.1687 0029966 206.5006 215.3162 12.98083615641390
Epoch: 2026-09-07T13:41Z
TLE epoch observation values (Epoch: 2026-09-07T13:41:31.180Z)
Latitude
61.70287°
Longitude
162.70029°
Altitude
1,298.962 km
Speed
7.204 km/s
True Right ascension
23h 38m 55s
True Declination
61° 34' 09"
Sunlit
Object was in daylight at epoch
Visualization orbit readout
Latitude
Unknown
Longitude
Unknown
Altitude
Unknown
Speed
Unknown
Apparent Right ascension
Unknown
Apparent Declination
Unknown
Sunlit
N/A
Visualization observer readout
Local Sidereal Time
15:29:36
Azimuth
Unknown
Elevation
Unknown
Doppler factor
Unknown
Orbital elements
Apogee altitude
1,289.643 km
Perigee altitude
1,243.826 km
Semi-major axis
7,644.871 km
Eccentricity
0.003
Inclination
90.2376°
RAAN
355.1687°
Arg. of periapsis
206.5006°
True anomaly
215.1183°
Mean anomaly
215.3162°
Eccentric anomaly
215.21719°
Mean motion
3.24704 °/min
Orbital period
110.87 mins
BSTAR
-0.00065022
Loading maneuver chart data...
Computing Atmospheric mass density...
Loading historical data...
Loading historical data...
Loading historical data...
Loading historical data...
Loading historical data...
Loading historical data...
Loading historical data...

Documentation

Showing up to 5 results
|